Simultaneous Nadir Overpasses (SNOs) Predictions

Prediction of SNOs between AQUA and METOP-A Satellite Orbit:

Table of predicted SNOs for the next 14.0 days since TLE Epoch: 1/24/2020
Index Date (AQUA) Time (AQUA) Lat,Lon (AQUA) SZA (AQUA ) Date (METOP-A) Time (METOP-A) Lat,Lon (METOP-A) SZA (METOP-A ) Distance(km) Time Diff (sec)
1 01/24/2020 15:43:48 75.81, -66.68 95.33 01/24/2020 15:43:26 75.81, -66.81 95.35 3.66 22
2 01/24/2020 16:33:15 -75.87, 100.78 84.61 01/24/2020 16:34:06 -75.89, 100.77 84.60 2.82 51
3 01/27/2020 10:28:26 -75.27,-166.35 85.96 01/27/2020 10:27:21 -75.23,-169.53 85.79 89.93 65
4 01/27/2020 11:18:05 75.86, -0.40 94.70 01/27/2020 11:17:48 75.84, -0.36 94.69 1.99 17
5 01/27/2020 12:07:32 -75.91, 167.09 85.25 01/27/2020 12:08:29 -75.88, 167.09 85.29 3.47 57
6 01/30/2020 06:02:48 -75.57,-100.75 86.36 01/30/2020 06:01:38 -75.50,-102.38 86.30 45.87 70
7 01/30/2020 06:52:21 75.86, 66.03 93.97 01/30/2020 06:52:10 75.87, 66.09 93.98 2.05 11
8 01/30/2020 07:41:48 -75.91,-126.47 85.99 01/30/2020 07:42:51 -75.91,-126.46 86.00 0.32 63
9 02/02/2020 01:37:08 -75.82, -35.04 86.85 02/02/2020 01:35:54 -75.77, -35.21 86.87 7.05 74
10 02/02/2020 02:26:36 75.87, 132.43 93.21 02/02/2020 02:26:32 75.85, 132.39 93.19 2.74 4
11 02/02/2020 03:16:03 -75.91, -60.04 86.76 02/02/2020 03:17:12 -75.94, -60.01 86.76 3.07 69
12 02/04/2020 21:11:24 -75.82, 31.38 87.66 02/04/2020 21:10:15 -75.84, 31.38 87.63 1.97 69
13 02/04/2020 22:00:52 75.89,-161.17 92.40 02/04/2020 22:00:54 75.88,-161.17 92.39 1.23 2




NCC Satellite Simultaneous Nadir Overpasses (SNOs) Prediction Service
